SCP
0 0 0 0 0 0 1 2 2 2 3 3 3 3 3 4 4 4 4 2 1 1 1 0 0 0 0 0 0 0 0 0 0 0 0 0 0 0 0 0 0 0 0
0 0 0 0 0 1 1 1 1 2 3 3 3 3 3 4 3 3 2 1 1 1 0 0 0 0 0 0 0 0 0 0 0 0 0 0 0 0 0 0 0 0 0
0 0 0 0 1 1 1 0 1 2 2 3 2 3 3 3 3 2 1 1 1 1 0 0 0 0 0 0 0 0 0 0 0 0 0 0 0 0 0 0 0 0 0
0 0 0 0 1 0 1 1 2 1 2 2 3 3 2 2 2 2 1 1 1 0 0 0 0 0 0 0 0 0 0 0 0 0 0 0 0 0 0 0 0 0 0
0 0 0 1 0 0 1 1 2 3 3 3 3 3 3 2 2 2 1 1 1 0 0 0 0 0 0 0 0 0 0 0 0 0 0 0 0 0 0 0 0 0 0
0 0 0 1 0 0 1 2 3 3 3 2 2 3 3 2 0 0 1 1 0 0 0 0 0 0 0 0 0 0 0 0 0 0 0 0 0 0 0 0 0 0 0
0 0 0 1 1 1 1 2 3 4 4 3 2 3 3 2 0 0 0 0 0 0 0 0 0 0 0 0 0 0 0 -0 0 0 0 0 0 0 0 0 0 0 0
0 0 0 2 1 2 3 3 4 3 2 3 3 3 3 1 0 0 0 0 0 0 0 0 0 0 0 0 0 0 0 0 0 -0 -0 0 0 0 0 0 0 0 0
0 0 2 3 2 2 3 3 3 2 3 3 3 2 1 0 0 0 0 0 0 0 0 0 0 0 0 0 0 0 0 0 0 0 0 0 0 0 0 0 0 0 0
0 0 1 1 2 2 3 3 2 3 3 3 2 1 0 0 0 0 0 0 0 0 0 0 0 0 0 0 0 0 0 0 0 0 0 0 0 0 0 0 0 0 0
0 0 1 1 2 2 2 2 2 1 2 1 0 0 0 0 0 0 0 0 0 0 0 0 0 0 0 0 0 0 0 0 0 0 0 0 0 0 0 0 0 0 0
0 0 1 1 1 1 1 1 1 1 0 0 0 0 0 0 0 0 0 0 0 0 0 0 0 0 0 0 0 0 0 0 0 0 0 0 0 0 0 0 0 0 0
0 0 0 0 0 0 0 0 0 0 0 0 0 0 0 0 0 0 0 0 0 0 0 0 0 0 0 0 0 0 0 0 0 0 0 0 0 0 0 0 0 0 0
0 0 0 0 0 0 0 0 0 0 0 0 0 0 0 0 0 0 0 0 0 0 0 0 0 0 0 0 0 0 0 0 0 0 0 0 0 0 0 0 0 0 0
0 0 0 0 0 0 0 0 0 0 0 0 0 0 0 0 0 0 0 0 0 0 0 0 0 0 0 0 0 0 0 0 0 0 0 0 0 0 0 0 0 0 0
0 0 0 0 0 0 0 0 0 0 0 0 0 0 0 0 0 0 0 0 0 0 0 0 0 0 0 0 0 0 0 0 0 0 0 0 0 0 0 0 0 0 0
0 0 0 0 0 0 0 0 0 0 0 0 0 0 0 0 0 0 0 0 0 0 0 0 0 0 0 0 0 0 0 0 0 0 0 0 0 0 0 0 0 0 0
0 0 0 0 0 0 0 0 0 0 0 0 0 0 0 0 -0 -0 -0 0 0 0 0 0 0 0 0 0 0 0 0 0 0 0 0 0 0 0 0 0 0 0 0
0 0 0 0 0 0 0 0 0 0 0 0 0 0 0 -0 -0 -0 0 0 0 0 0 0 0 0 0 0 0 0 0 0 0 0 0 0 0 0 0 0 0 0 0
0 0 0 0 0 0 0 0 0 0 0 0 0 0 0 0 0 0 0 0 0 0 0 0 0 0 0 0 0 0 -0 0 0 0 0 0 0 0 0 0 0 0 0
0 0 0 0 0 0 0 0 0 0 0 0 0 0 0 -0 0 0 0 0 0 0 0 0 -0 -0 -0 0 -0 0 0 0 0 0 0 0 0 0 0 0 0 0 0
0 0 0 0 0 0 0 0 0 0 0 0 0 0 0 0 -0 0 0 0 0 0 0 -0 -0 -0 0 0 0 0 0 0 0 0 0 0 0 0 0 0 0 0 0
0 0 0 0 0 0 0 0 0 0 0 0 0 0 0 0 0 0 0 0 0 0 0 0 0 0 0 0 0 0 0 0 0 0 0 0 0 0 0 0 0 0 0
0 0 0 0 0 0 0 0 0 0 0 0 0 0 0 0 0 0 0 0 0 0 0 0 0 -0 0 0 0 0 0 0 0 0 0 0 0 0 0 0 0 0 0
0 0 0 0 0 0 0 0 0 0 0 0 0 0 0 0 0 0 0 0 0 0 0 0 0 0 0 -0 -0 -0 -0 -0 0 0 0 0 0 0 0 0 0 0 0
0 0 0 0 0 0 0 0 0 0 0 0 0 0 0 0 0 -0 -0 -0 -0 -0 -0 -0 -0 -0 -0 -0 -0 -0 -0 -0 -0 -0 -0 -0 -0 -0 0 0 -0 0 0
Wind_Speed_500mb
66 64 65 66 62 70 75 72 81 70 65 75 68 50 49 48 51 49 38 46 41 42 41 38 33 29 27 26 25 24 23 19 15 14 14 12 15 22 27 24 25 28 29
66 67 67 68 63 69 75 74 72 63 68 70 65 50 49 53 54 46 44 48 48 41 40 35 34 30 28 26 23 24 21 22 15 14 16 18 19 20 25 23 27 29 29
67 70 65 68 69 75 78 73 65 59 65 66 58 54 57 58 55 47 46 43 46 42 36 34 33 30 27 26 24 23 23 23 20 14 17 20 24 27 26 28 26 25 28
66 67 65 67 74 79 77 74 61 61 66 67 61 62 61 58 53 53 50 45 45 39 35 33 30 27 26 24 25 22 24 23 22 16 17 20 26 29 28 33 30 26 27
64 65 64 61 72 78 74 74 65 69 69 68 68 65 61 59 55 57 50 47 42 38 35 32 28 25 23 22 23 24 23 23 23 23 19 22 30 32 35 38 34 29 28
70 56 47 51 64 71 72 74 70 71 72 71 70 68 64 59 59 53 49 46 39 37 39 34 28 25 21 20 19 22 22 22 27 28 22 23 30 38 40 42 40 37 36
75 46 42 49 54 63 70 71 73 74 74 71 69 64 64 61 62 56 48 41 33 35 39 33 28 25 21 20 21 23 25 26 25 21 20 18 25 33 41 40 38 41 39
67 44 41 45 54 63 74 74 73 70 70 70 68 62 60 57 63 50 48 34 31 32 32 31 27 22 22 21 25 23 25 26 26 25 22 19 18 22 32 39 38 40 36
67 41 28 45 53 63 68 67 65 66 67 66 59 61 61 65 53 49 42 38 35 33 33 29 25 22 18 22 28 25 25 26 25 24 25 24 21 20 29 34 38 40 41
40 21 13 44 56 61 62 62 61 62 62 56 62 62 66 57 55 44 43 42 40 36 32 27 24 21 17 23 28 26 24 23 25 25 26 27 27 24 27 31 33 40 44
34 16 3 28 41 42 47 49 56 59 63 70 75 63 60 58 53 44 40 38 38 35 32 27 25 21 20 23 26 24 20 19 22 25 26 25 25 30 36 37 31 34 35
31 20 11 26 37 38 48 61 61 66 73 75 73 69 63 53 47 44 42 38 34 32 29 30 23 22 19 23 24 22 19 19 22 23 24 26 28 33 36 37 31 34 32
15 12 18 28 35 48 63 66 69 77 81 77 70 65 59 55 50 44 39 35 33 31 29 28 21 19 24 24 26 22 20 18 19 21 22 26 29 29 32 33 30 31 30
12 16 28 39 50 61 65 64 71 73 68 63 66 62 59 54 48 43 39 37 37 35 30 28 23 22 23 23 27 25 21 17 16 15 17 24 32 33 35 34 33 33 31
16 16 43 56 63 65 73 69 58 59 63 64 58 57 55 50 44 39 37 39 40 37 32 27 23 23 22 23 24 24 26 23 18 14 16 25 33 35 35 34 31 29 31
21 28 44 64 62 65 68 68 58 49 44 43 45 44 41 36 37 35 31 27 30 32 29 25 20 19 20 23 25 26 29 25 21 16 16 21 30 35 37 35 32 30 26
34 42 47 69 67 67 64 63 59 54 46 42 40 31 31 39 34 30 29 30 34 35 31 27 21 17 19 23 22 28 31 34 25 21 15 13 28 32 36 34 36 36 33
44 66 61 61 61 57 56 56 53 53 51 48 43 41 35 36 30 23 27 30 30 29 25 23 24 22 21 22 25 25 29 31 29 23 17 14 18 26 30 34 31 34 33
93 71 64 52 56 57 57 55 53 53 54 55 49 48 43 36 31 28 29 26 21 17 18 18 20 22 22 24 27 25 25 25 25 23 18 15 21 24 26 24 25 26 26
91 83 63 63 60 56 54 53 57 58 55 51 52 49 46 37 33 31 25 21 18 15 15 15 15 15 15 19 23 27 27 26 27 25 20 17 18 24 23 26 26 28 29
84 77 63 55 47 45 48 58 58 54 52 51 46 43 36 31 33 27 23 22 20 14 12 12 12 11 13 15 18 21 23 23 25 24 19 19 11 16 24 23 26 26 27
69 61 54 53 51 49 52 56 57 58 53 51 50 43 35 33 34 30 33 29 20 15 14 15 14 18 22 21 22 21 26 25 23 19 19 20 20 17 18 15 16 21 21
56 56 53 50 49 57 53 51 54 57 58 53 50 46 40 42 38 35 26 18 15 19 17 19 20 22 20 24 25 22 29 23 19 18 19 25 21 18 16 16 20 20 17
53 51 53 55 53 50 54 53 53 56 58 58 54 49 47 43 39 30 24 18 16 18 23 17 18 19 21 19 19 20 20 19 18 17 16 18 17 15 18 19 19 19 19
53 56 54 57 54 55 57 55 58 61 58 57 58 55 49 43 35 31 23 23 25 21 20 16 20 23 18 18 15 15 18 17 15 13 12 15 20 21 20 20 18 20 24
49 56 61 62 61 59 61 62 59 58 59 61 60 55 48 40 34 30 25 26 25 24 22 25 26 25 25 20 18 15 14 11 10 11 6 7 11 17 20 21 20 19 16
Wind_Direction_500mb
298 295 281 272 259 250 251 250 239 244 235 226 226 221 223 220 217 214 214 203 209 204 216 221 224 230 230 233 226 230 227 226 227 235 237 228 218 207 209 212 197 196 193
298 296 279 270 256 244 245 247 236 234 218 218 217 218 220 216 212 211 201 204 207 204 214 220 227 225 225 222 222 222 222 224 211 212 232 216 208 195 195 195 192 193 199
297 296 283 265 253 236 239 241 228 220 211 209 213 220 214 209 208 202 199 203 204 206 217 223 224 219 217 215 215 222 225 224 212 204 222 208 200 192 191 186 187 191 190
304 292 287 262 248 230 232 230 216 212 204 210 216 215 208 207 204 193 194 199 200 208 213 216 215 211 213 214 218 226 221 214 204 196 209 205 198 194 196 190 185 184 185
307 290 277 261 245 227 226 219 209 205 208 213 214 205 203 203 198 189 192 194 202 206 205 203 198 203 209 217 220 223 217 205 194 201 205 200 195 198 191 190 187 178 182
314 286 278 269 235 219 216 211 203 202 208 212 208 200 197 199 192 187 193 196 199 203 198 193 199 207 217 218 223 216 210 208 190 200 213 210 211 201 201 199 193 186 178
314 297 293 253 216 204 202 200 199 200 204 204 198 194 197 198 184 187 187 186 192 196 195 201 209 217 218 222 220 208 202 195 194 207 219 238 221 213 199 193 189 192 193
311 305 278 227 202 192 193 193 194 197 198 192 191 193 194 190 181 175 173 179 186 188 194 200 210 216 216 223 206 199 197 195 200 212 221 224 221 220 208 204 195 197 191
294 285 235 199 186 183 181 182 184 182 182 185 189 187 182 169 166 169 175 183 183 188 190 199 208 208 215 203 194 197 198 200 204 216 220 215 206 201 198 192 195 195 191
313 326 182 179 174 168 169 168 173 180 183 184 178 178 171 166 170 175 184 181 188 192 195 202 200 197 194 184 187 198 205 207 211 215 211 204 196 199 190 198 202 193 189
316 325 122 173 177 178 176 178 179 178 176 172 164 160 165 171 170 182 182 189 194 198 202 198 189 188 188 180 183 191 202 201 201 199 200 203 206 200 189 201 201 210 199
314 284 239 200 189 182 180 171 170 171 168 158 157 163 169 175 180 176 185 195 195 199 196 185 190 188 184 186 186 186 188 184 191 202 208 209 201 190 188 188 196 200 198
292 220 215 205 192 186 171 169 168 162 152 158 164 165 166 169 171 177 187 188 189 186 183 184 184 188 192 189 184 185 183 184 200 202 204 204 194 188 182 189 196 194 203
256 220 192 175 172 164 159 153 150 155 155 156 163 167 167 169 175 180 182 182 177 176 179 186 192 199 191 190 195 188 182 179 193 207 212 195 187 185 188 194 194 197 211
226 213 173 160 151 148 147 147 155 158 164 165 170 171 171 175 180 183 185 181 178 176 181 182 195 196 192 190 186 185 185 184 194 206 216 196 186 191 194 197 205 210 213
181 171 172 158 154 153 150 150 157 162 166 169 166 169 173 177 173 174 174 175 173 181 180 188 194 196 196 190 190 188 193 195 195 201 212 213 204 204 207 208 213 211 223
206 179 171 155 155 155 154 157 160 160 157 159 159 160 163 160 163 167 168 171 178 183 191 195 209 209 205 192 191 196 204 202 197 206 213 225 207 207 209 211 219 223 223
202 174 171 158 157 158 158 161 163 157 153 153 153 149 152 153 150 161 170 164 168 175 187 202 217 227 210 206 202 207 206 207 201 203 205 211 203 203 206 212 219 220 226
173 170 161 159 164 164 162 160 161 158 154 151 150 152 146 144 135 147 151 160 160 168 189 205 212 215 216 213 213 208 207 203 202 200 204 213 212 207 201 206 206 194 194
155 159 155 158 162 162 163 163 161 158 154 153 153 151 150 146 148 152 158 162 169 170 170 178 187 197 206 206 207 208 207 214 204 201 203 208 207 202 198 199 204 208 206
153 157 155 148 144 147 153 159 156 155 155 152 152 151 148 153 151 149 148 143 141 147 156 165 167 182 171 177 174 174 172 185 204 189 199 202 202 201 205 212 216 210 216
146 144 141 141 142 142 147 152 153 154 154 153 150 144 145 150 145 149 147 145 144 145 149 156 156 153 157 155 161 162 163 161 173 187 199 194 205 196 196 208 217 203 210
134 136 138 138 142 147 143 149 154 155 155 153 150 148 150 152 151 149 147 149 145 151 156 158 147 151 159 150 155 165 168 169 175 182 188 198 215 216 217 216 217 216 223
137 139 143 145 142 143 150 149 153 154 152 150 152 152 149 148 148 145 146 146 146 140 142 142 152 158 164 173 179 183 187 189 193 194 199 198 213 214 220 225 230 228 230
140 138 137 142 139 144 148 149 151 153 153 151 150 148 151 151 151 152 150 146 140 142 137 132 143 147 131 144 147 152 163 166 173 183 184 184 192 203 209 212 218 237 249
141 143 141 143 147 149 155 157 155 154 153 152 152 152 154 155 157 158 154 147 147 140 135 129 127 133 134 132 129 133 143 149 128 126 170 180 197 212 222 233 242 247 246
Wind_Speed_850mb
66 64 65 66 62 70 75 72 81 70 65 75 68 50 49 48 51 49 38 46 41 42 41 38 33 29 27 26 25 24 23 19 15 14 14 12 15 22 27 24 25 28 29
66 67 67 68 63 69 75 74 72 63 68 70 65 50 49 53 54 46 44 48 48 41 40 35 34 30 28 26 23 24 21 22 15 14 16 18 19 20 25 23 27 29 29
67 70 65 68 69 75 78 73 65 59 65 66 58 54 57 58 55 47 46 43 46 42 36 34 33 30 27 26 24 23 23 23 20 14 17 20 24 27 26 28 26 25 28
66 67 65 67 74 79 77 74 61 61 66 67 61 62 61 58 53 53 50 45 45 39 35 33 30 27 26 24 25 22 24 23 22 16 17 20 26 29 28 33 30 26 27
64 65 64 61 72 78 74 74 65 69 69 68 68 65 61 59 55 57 50 47 42 38 35 32 28 25 23 22 23 24 23 23 23 23 19 22 30 32 35 38 34 29 28
70 56 47 51 64 71 72 74 70 71 72 71 70 68 64 59 59 53 49 46 39 37 39 34 28 25 21 20 19 22 22 22 27 28 22 23 30 38 40 42 40 37 36
75 46 42 49 54 63 70 71 73 74 74 71 69 64 64 61 62 56 48 41 33 35 39 33 28 25 21 20 21 23 25 26 25 21 20 18 25 33 41 40 38 41 39
67 44 41 45 54 63 74 74 73 70 70 70 68 62 60 57 63 50 48 34 31 32 32 31 27 22 22 21 25 23 25 26 26 25 22 19 18 22 32 39 38 40 36
67 41 28 45 53 63 68 67 65 66 67 66 59 61 61 65 53 49 42 38 35 33 33 29 25 22 18 22 28 25 25 26 25 24 25 24 21 20 29 34 38 40 41
40 21 13 44 56 61 62 62 61 62 62 56 62 62 66 57 55 44 43 42 40 36 32 27 24 21 17 23 28 26 24 23 25 25 26 27 27 24 27 31 33 40 44
34 16 3 28 41 42 47 49 56 59 63 70 75 63 60 58 53 44 40 38 38 35 32 27 25 21 20 23 26 24 20 19 22 25 26 25 25 30 36 37 31 34 35
31 20 11 26 37 38 48 61 61 66 73 75 73 69 63 53 47 44 42 38 34 32 29 30 23 22 19 23 24 22 19 19 22 23 24 26 28 33 36 37 31 34 32
15 12 18 28 35 48 63 66 69 77 81 77 70 65 59 55 50 44 39 35 33 31 29 28 21 19 24 24 26 22 20 18 19 21 22 26 29 29 32 33 30 31 30
12 16 28 39 50 61 65 64 71 73 68 63 66 62 59 54 48 43 39 37 37 35 30 28 23 22 23 23 27 25 21 17 16 15 17 24 32 33 35 34 33 33 31
16 16 43 56 63 65 73 69 58 59 63 64 58 57 55 50 44 39 37 39 40 37 32 27 23 23 22 23 24 24 26 23 18 14 16 25 33 35 35 34 31 29 31
21 28 44 64 62 65 68 68 58 49 44 43 45 44 41 36 37 35 31 27 30 32 29 25 20 19 20 23 25 26 29 25 21 16 16 21 30 35 37 35 32 30 26
34 42 47 69 67 67 64 63 59 54 46 42 40 31 31 39 34 30 29 30 34 35 31 27 21 17 19 23 22 28 31 34 25 21 15 13 28 32 36 34 36 36 33
44 66 61 61 61 57 56 56 53 53 51 48 43 41 35 36 30 23 27 30 30 29 25 23 24 22 21 22 25 25 29 31 29 23 17 14 18 26 30 34 31 34 33
93 71 64 52 56 57 57 55 53 53 54 55 49 48 43 36 31 28 29 26 21 17 18 18 20 22 22 24 27 25 25 25 25 23 18 15 21 24 26 24 25 26 26
91 83 63 63 60 56 54 53 57 58 55 51 52 49 46 37 33 31 25 21 18 15 15 15 15 15 15 19 23 27 27 26 27 25 20 17 18 24 23 26 26 28 29
84 77 63 55 47 45 48 58 58 54 52 51 46 43 36 31 33 27 23 22 20 14 12 12 12 11 13 15 18 21 23 23 25 24 19 19 11 16 24 23 26 26 27
69 61 54 53 51 49 52 56 57 58 53 51 50 43 35 33 34 30 33 29 20 15 14 15 14 18 22 21 22 21 26 25 23 19 19 20 20 17 18 15 16 21 21
56 56 53 50 49 57 53 51 54 57 58 53 50 46 40 42 38 35 26 18 15 19 17 19 20 22 20 24 25 22 29 23 19 18 19 25 21 18 16 16 20 20 17
53 51 53 55 53 50 54 53 53 56 58 58 54 49 47 43 39 30 24 18 16 18 23 17 18 19 21 19 19 20 20 19 18 17 16 18 17 15 18 19 19 19 19
53 56 54 57 54 55 57 55 58 61 58 57 58 55 49 43 35 31 23 23 25 21 20 16 20 23 18 18 15 15 18 17 15 13 12 15 20 21 20 20 18 20 24
49 56 61 62 61 59 61 62 59 58 59 61 60 55 48 40 34 30 25 26 25 24 22 25 26 25 25 20 18 15 14 11 10 11 6 7 11 17 20 21 20 19 16
Wind_Direction_850mb
298 295 281 272 259 250 251 250 239 244 235 226 226 221 223 220 217 214 214 203 209 204 216 221 224 230 230 233 226 230 227 226 227 235 237 228 218 207 209 212 197 196 193
298 296 279 270 256 244 245 247 236 234 218 218 217 218 220 216 212 211 201 204 207 204 214 220 227 225 225 222 222 222 222 224 211 212 232 216 208 195 195 195 192 193 199
297 296 283 265 253 236 239 241 228 220 211 209 213 220 214 209 208 202 199 203 204 206 217 223 224 219 217 215 215 222 225 224 212 204 222 208 200 192 191 186 187 191 190
304 292 287 262 248 230 232 230 216 212 204 210 216 215 208 207 204 193 194 199 200 208 213 216 215 211 213 214 218 226 221 214 204 196 209 205 198 194 196 190 185 184 185
307 290 277 261 245 227 226 219 209 205 208 213 214 205 203 203 198 189 192 194 202 206 205 203 198 203 209 217 220 223 217 205 194 201 205 200 195 198 191 190 187 178 182
314 286 278 269 235 219 216 211 203 202 208 212 208 200 197 199 192 187 193 196 199 203 198 193 199 207 217 218 223 216 210 208 190 200 213 210 211 201 201 199 193 186 178
314 297 293 253 216 204 202 200 199 200 204 204 198 194 197 198 184 187 187 186 192 196 195 201 209 217 218 222 220 208 202 195 194 207 219 238 221 213 199 193 189 192 193
311 305 278 227 202 192 193 193 194 197 198 192 191 193 194 190 181 175 173 179 186 188 194 200 210 216 216 223 206 199 197 195 200 212 221 224 221 220 208 204 195 197 191
294 285 235 199 186 183 181 182 184 182 182 185 189 187 182 169 166 169 175 183 183 188 190 199 208 208 215 203 194 197 198 200 204 216 220 215 206 201 198 192 195 195 191
313 326 182 179 174 168 169 168 173 180 183 184 178 178 171 166 170 175 184 181 188 192 195 202 200 197 194 184 187 198 205 207 211 215 211 204 196 199 190 198 202 193 189
316 325 122 173 177 178 176 178 179 178 176 172 164 160 165 171 170 182 182 189 194 198 202 198 189 188 188 180 183 191 202 201 201 199 200 203 206 200 189 201 201 210 199
314 284 239 200 189 182 180 171 170 171 168 158 157 163 169 175 180 176 185 195 195 199 196 185 190 188 184 186 186 186 188 184 191 202 208 209 201 190 188 188 196 200 198
292 220 215 205 192 186 171 169 168 162 152 158 164 165 166 169 171 177 187 188 189 186 183 184 184 188 192 189 184 185 183 184 200 202 204 204 194 188 182 189 196 194 203
256 220 192 175 172 164 159 153 150 155 155 156 163 167 167 169 175 180 182 182 177 176 179 186 192 199 191 190 195 188 182 179 193 207 212 195 187 185 188 194 194 197 211
226 213 173 160 151 148 147 147 155 158 164 165 170 171 171 175 180 183 185 181 178 176 181 182 195 196 192 190 186 185 185 184 194 206 216 196 186 191 194 197 205 210 213
181 171 172 158 154 153 150 150 157 162 166 169 166 169 173 177 173 174 174 175 173 181 180 188 194 196 196 190 190 188 193 195 195 201 212 213 204 204 207 208 213 211 223
206 179 171 155 155 155 154 157 160 160 157 159 159 160 163 160 163 167 168 171 178 183 191 195 209 209 205 192 191 196 204 202 197 206 213 225 207 207 209 211 219 223 223
202 174 171 158 157 158 158 161 163 157 153 153 153 149 152 153 150 161 170 164 168 175 187 202 217 227 210 206 202 207 206 207 201 203 205 211 203 203 206 212 219 220 226
173 170 161 159 164 164 162 160 161 158 154 151 150 152 146 144 135 147 151 160 160 168 189 205 212 215 216 213 213 208 207 203 202 200 204 213 212 207 201 206 206 194 194
155 159 155 158 162 162 163 163 161 158 154 153 153 151 150 146 148 152 158 162 169 170 170 178 187 197 206 206 207 208 207 214 204 201 203 208 207 202 198 199 204 208 206
153 157 155 148 144 147 153 159 156 155 155 152 152 151 148 153 151 149 148 143 141 147 156 165 167 182 171 177 174 174 172 185 204 189 199 202 202 201 205 212 216 210 216
146 144 141 141 142 142 147 152 153 154 154 153 150 144 145 150 145 149 147 145 144 145 149 156 156 153 157 155 161 162 163 161 173 187 199 194 205 196 196 208 217 203 210
134 136 138 138 142 147 143 149 154 155 155 153 150 148 150 152 151 149 147 149 145 151 156 158 147 151 159 150 155 165 168 169 175 182 188 198 215 216 217 216 217 216 223
137 139 143 145 142 143 150 149 153 154 152 150 152 152 149 148 148 145 146 146 146 140 142 142 152 158 164 173 179 183 187 189 193 194 199 198 213 214 220 225 230 228 230
140 138 137 142 139 144 148 149 151 153 153 151 150 148 151 151 151 152 150 146 140 142 137 132 143 147 131 144 147 152 163 166 173 183 184 184 192 203 209 212 218 237 249
141 143 141 143 147 149 155 157 155 154 153 152 152 152 154 155 157 158 154 147 147 140 135 129 127 133 134 132 129 133 143 149 128 126 170 180 197 212 222 233 242 247 246